Hourly Weather Kozubec

Today, 22 October, Thursday

Time Temperature Precipitation Wind Pressure Humidity
00:00 +5°C° 0 mm 2 mps 745 mmHg 95%
01:00 +5°C° 0 mm 2 mps 745 mmHg 95%
02:00 +5°C° 0 mm 3 mps 745 mmHg 95%
03:00 +5°C° 0.4 mm 3 mps 744 mmHg 95%
04:00 +5°C° 0.4 mm 3 mps 744 mmHg 95%
05:00 +6°C° 0.4 mm 4 mps 743 mmHg 95%
06:00 +6°C° 0.3 mm 4 mps 743 mmHg 95%
07:00 +6°C° 0.3 mm 4 mps 743 mmHg 95%
08:00 +7°C° 0.3 mm 4 mps 743 mmHg 95%
09:00 +8°C° 0 mm 5 mps 743 mmHg 91%
10:00 +8°C° 0 mm 5 mps 742 mmHg 87%
11:00 +9°C° 0 mm 5 mps 742 mmHg 83%
12:00 +10°C° 0 mm 6 mps 742 mmHg 80%
13:00 +11°C° 0 mm 6 mps 742 mmHg 77%
14:00 +13°C° 0 mm 6 mps 742 mmHg 74%
15:00 +13°C° 0 mm 6 mps 741 mmHg 77%
16:00 +12°C° 0 mm 5 mps 741 mmHg 80%
17:00 +12°C° 0 mm 5 mps 741 mmHg 83%
18:00 +12°C° 0 mm 5 mps 741 mmHg 83%
19:00 +12°C° 0 mm 5 mps 742 mmHg 83%
20:00 +11°C° 0 mm 6 mps 742 mmHg 82%
21:00 +12°C° 0 mm 5 mps 742 mmHg 84%
22:00 +10°C° 0 mm 5 mps 742 mmHg 87%
23:00 +10°C° 0 mm 5 mps 742 mmHg 89%

Tomorrow, 23 October, Friday

Time Temperature Precipitation Wind Pressure Humidity
00:00 +10°C° 0 mm 5 mps 742 mmHg 90%
01:00 +10°C° 0 mm 4 mps 743 mmHg 91%
02:00 +10°C° 0 mm 4 mps 743 mmHg 93%
03:00 +10°C° 0 mm 4 mps 743 mmHg 94%
04:00 +10°C° 0 mm 4 mps 743 mmHg 95%
05:00 +9°C° 0 mm 3 mps 743 mmHg 95%
06:00 +8°C° 0 mm 4 mps 742 mmHg 95%
07:00 +10°C° 0 mm 4 mps 742 mmHg 95%
08:00 +10°C° 0 mm 4 mps 742 mmHg 95%
09:00 +10°C° 0 mm 5 mps 742 mmHg 90%
10:00 +12°C° 0 mm 5 mps 741 mmHg 84%
11:00 +14°C° 0 mm 6 mps 741 mmHg 78%
12:00 +13°C° 0.3 mm 6 mps 741 mmHg 81%
13:00 +13°C° 0.3 mm 5 mps 740 mmHg 84%
14:00 +13°C° 0.3 mm 5 mps 740 mmHg 87%
15:00 +13°C° 0.8 mm 5 mps 740 mmHg 88%
16:00 +12°C° 0.8 mm 5 mps 740 mmHg 89%
17:00 +12°C° 0.8 mm 5 mps 740 mmHg 90%
18:00 +12°C° 0 mm 5 mps 740 mmHg 91%
19:00 +11°C° 0 mm 4 mps 740 mmHg 92%
20:00 +11°C° 0 mm 4 mps 740 mmHg 92%
21:00 +10°C° 0 mm 3 mps 740 mmHg 93%
22:00 +10°C° 0 mm 3 mps 741 mmHg 93%
23:00 +9°C° 0 mm 3 mps 741 mmHg 94%

Day after tomorrow, 24 October, Saturday

Time Temperature Precipitation Wind Pressure Humidity
00:00 +9°C° 0 mm 3 mps 741 mmHg 94%
01:00 +8°C° 0 mm 2 mps 741 mmHg 94%
02:00 +8°C° 0 mm 2 mps 741 mmHg 95%
03:00 +7°C° 0 mm 2 mps 741 mmHg 95%
04:00 +7°C° 0 mm 2 mps 741 mmHg 95%
05:00 +7°C° 0 mm 2 mps 741 mmHg 95%
06:00 +7°C° 0 mm 2 mps 742 mmHg 95%
07:00 +7°C° 0 mm 2 mps 742 mmHg 95%
08:00 +7°C° 0 mm 2 mps 742 mmHg 95%
09:00 +9°C° 0 mm 2 mps 742 mmHg 90%
10:00 +10°C° 0 mm 2 mps 742 mmHg 85%
11:00 +12°C° 0 mm 2 mps 742 mmHg 80%
12:00 +12°C° 0 mm 2 mps 742 mmHg 80%
13:00 +13°C° 0 mm 2 mps 742 mmHg 79%
14:00 +13°C° 0 mm 2 mps 742 mmHg 79%
15:00 +12°C° 0.1 mm 2 mps 741 mmHg 84%
16:00 +12°C° 0.1 mm 2 mps 741 mmHg 89%
17:00 +10°C° 0.1 mm 2 mps 741 mmHg 94%
18:00 +10°C° 0 mm 2 mps 741 mmHg 93%
19:00 +9°C° 0 mm 2 mps 741 mmHg 93%
20:00 +9°C° 0 mm 2 mps 741 mmHg 93%
21:00 +9°C° 0.1 mm 2 mps 741 mmHg 94%
22:00 +9°C° 0.1 mm 2 mps 741 mmHg 94%
23:00 +9°C° 0.1 mm 2 mps 740 mmHg 94%

, 25 October, Sunday

Time Temperature Precipitation Wind Pressure Humidity
00:00 +9°C° 1.5 mm 2 mps 740 mmHg 94%
01:00 +9°C° 1.5 mm 2 mps 740 mmHg 94%
02:00 +9°C° 1.5 mm 3 mps 740 mmHg 94%
03:00 +8°C° 0.2 mm 4 mps 741 mmHg 92%
04:00 +8°C° 0.2 mm 5 mps 741 mmHg 90%
05:00 +7°C° 0.2 mm 6 mps 741 mmHg 88%
06:00 +7°C° 0 mm 5 mps 742 mmHg 88%
07:00 +7°C° 0 mm 5 mps 742 mmHg 87%
08:00 +6°C° 0 mm 5 mps 743 mmHg 87%
09:00 +7°C° 0 mm 5 mps 743 mmHg 86%
10:00 +7°C° 0 mm 4 mps 744 mmHg 85%
11:00 +8°C° 0 mm 4 mps 745 mmHg 83%
12:00 +8°C° 0 mm 4 mps 745 mmHg 81%
13:00 +8°C° 0 mm 4 mps 745 mmHg 80%
14:00 +10°C° 0 mm 4 mps 745 mmHg 78%
15:00 +8°C° 0 mm 4 mps 746 mmHg 79%
16:00 +9°C° 0 mm 3 mps 746 mmHg 80%
17:00 +9°C° 0 mm 2 mps 746 mmHg 81%
18:00 +8°C° 0 mm 2 mps 747 mmHg 82%
19:00 +8°C° 0 mm 2 mps 747 mmHg 84%
20:00 +7°C° 0 mm 2 mps 748 mmHg 86%
21:00 +7°C° 0 mm 2 mps 748 mmHg 87%
22:00 +7°C° 0 mm 1 mps 748 mmHg 89%
23:00 +6°C° 0 mm 1 mps 749 mmHg 91%

25 October, Sunday

Time Temperature Precipitation Wind Pressure Humidity
00:00 +9°C° 1.5 mm 2 mps 740 mmHg 94%
01:00 +9°C° 1.5 mm 2 mps 740 mmHg 94%
02:00 +9°C° 1.5 mm 3 mps 740 mmHg 94%
03:00 +8°C° 0.2 mm 4 mps 741 mmHg 92%
04:00 +8°C° 0.2 mm 5 mps 741 mmHg 90%
05:00 +7°C° 0.2 mm 6 mps 741 mmHg 88%
06:00 +7°C° 0 mm 5 mps 742 mmHg 88%
07:00 +7°C° 0 mm 5 mps 742 mmHg 87%
08:00 +6°C° 0 mm 5 mps 743 mmHg 87%
09:00 +7°C° 0 mm 5 mps 743 mmHg 86%
10:00 +7°C° 0 mm 4 mps 744 mmHg 85%
11:00 +8°C° 0 mm 4 mps 745 mmHg 83%
12:00 +8°C° 0 mm 4 mps 745 mmHg 81%
13:00 +8°C° 0 mm 4 mps 745 mmHg 80%
14:00 +10°C° 0 mm 4 mps 745 mmHg 78%
15:00 +8°C° 0 mm 4 mps 746 mmHg 79%
16:00 +9°C° 0 mm 3 mps 746 mmHg 80%
17:00 +9°C° 0 mm 2 mps 746 mmHg 81%
18:00 +8°C° 0 mm 2 mps 747 mmHg 82%
19:00 +8°C° 0 mm 2 mps 747 mmHg 84%
20:00 +7°C° 0 mm 2 mps 748 mmHg 86%
21:00 +7°C° 0 mm 2 mps 748 mmHg 87%
22:00 +7°C° 0 mm 1 mps 748 mmHg 89%
23:00 +6°C° 0 mm 1 mps 749 mmHg 91%

26 October, Monday

Time Temperature Precipitation Wind Pressure Humidity
00:00 +6°C° 0 mm 1 mps 749 mmHg 91%
01:00 +6°C° 0 mm 1 mps 749 mmHg 92%
02:00 +6°C° 0 mm 1 mps 749 mmHg 92%
03:00 +5°C° 0 mm 1 mps 749 mmHg 92%
04:00 +4°C° 0 mm 0 mps 750 mmHg 92%
05:00 +4°C° 0 mm 0 mps 750 mmHg 92%
06:00 +4°C° 0 mm 0 mps 750 mmHg 92%
07:00 +5°C° 0 mm 0 mps 750 mmHg 92%
08:00 +6°C° 0 mm 1 mps 751 mmHg 92%
09:00 +7°C° 0 mm 1 mps 751 mmHg 86%
10:00 +9°C° 0 mm 1 mps 751 mmHg 81%
11:00 +10°C° 0 mm 1 mps 751 mmHg 75%
12:00 +10°C° 0 mm 1 mps 751 mmHg 73%
13:00 +10°C° 0 mm 2 mps 752 mmHg 71%
14:00 +10°C° 0 mm 2 mps 752 mmHg 69%
15:00 +9°C° 0 mm 2 mps 752 mmHg 74%
16:00 +8°C° 0 mm 2 mps 751 mmHg 80%
17:00 +7°C° 0 mm 2 mps 751 mmHg 85%
18:00 +6°C° 0 mm 2 mps 751 mmHg 87%
19:00 +6°C° 0 mm 2 mps 752 mmHg 89%
20:00 +6°C° 0 mm 2 mps 752 mmHg 91%
21:00 +5°C° 0 mm 2 mps 752 mmHg 92%
22:00 +5°C° 0 mm 2 mps 752 mmHg 93%
23:00 +5°C° 0 mm 2 mps 752 mmHg 94%

27 October, Tuesday

Time Temperature Precipitation Wind Pressure Humidity
00:00 +5°C° 0 mm 2 mps 752 mmHg 94%
01:00 +4°C° 0 mm 2 mps 752 mmHg 94%
02:00 +3°C° 0 mm 3 mps 752 mmHg 94%
03:00 +3°C° 0 mm 3 mps 752 mmHg 94%
04:00 +3°C° 0 mm 3 mps 752 mmHg 93%
05:00 +3°C° 0 mm 3 mps 752 mmHg 93%
06:00 +3°C° 0 mm 3 mps 752 mmHg 92%
07:00 +3°C° 0 mm 3 mps 752 mmHg 91%
08:00 +4°C° 0 mm 4 mps 752 mmHg 91%
09:00 +5°C° 0 mm 4 mps 752 mmHg 85%
10:00 +7°C° 0 mm 4 mps 752 mmHg 80%
11:00 +8°C° 0 mm 5 mps 752 mmHg 75%
12:00 +9°C° 0 mm 5 mps 752 mmHg 74%
13:00 +9°C° 0 mm 5 mps 752 mmHg 72%
14:00 +9°C° 0 mm 5 mps 752 mmHg 70%
15:00 +9°C° 0 mm 5 mps 752 mmHg 73%
16:00 +8°C° 0 mm 4 mps 752 mmHg 75%
17:00 +7°C° 0 mm 4 mps 751 mmHg 77%
18:00 +7°C° 0 mm 4 mps 751 mmHg 78%
19:00 +7°C° 0 mm 4 mps 751 mmHg 78%
20:00 +7°C° 0 mm 4 mps 752 mmHg 78%
21:00 +7°C° 0 mm 4 mps 752 mmHg 78%
22:00 +7°C° 0 mm 4 mps 752 mmHg 77%
23:00 +7°C° 0 mm 4 mps 752 mmHg 77%
Show more